Volver al catálogo

THOR ABLESTAR DEB

ActivoLEO
NORAD 333·DEBRIS·🇺🇸 United States

Lanzado Jun 29, 1961 desde Cape Canaveral Space Force Station

Loading…

Próximos Pases (próximas 24 horas)

TLE

ActualizadoSource: Space-Track

Época: Sep 6, 2026, 11:25 UTC

1 00333U 61015DK  26249.47634622  .00003088  00000-0  36001-3 0  9991
2 00333  66.6975 272.7168 0040722 229.7099 130.0467 14.86165176400893

Sigue THOR ABLESTAR DEB en tiempo real con AllMySat

Download on the App Store